Location: Unspecified
(0.0000°N, 0.0000°E)
Time: 16:10:14
(UTC+00:00)

Interbol-2 - Pass Details

Date: 08 June 2023
Orbit: 911 x 19062 km, 62.8° (Epoch: 28 September)

Event Time Altitude Azimuth Distance (km) Brightness Sun altitude
Rises 20:44:08 0° 212° (SSW) 6,750 10.4 -37.4°
Reaches altitude 10° 20:46:53 10° 214° (SW) 6,404 10.2 -38.0°
Maximum altitude 21:12:54 70° 290° (WNW) 8,620 10.6 -43.6°
Drops below altitude 10° 00:01:32 10° 12° (NNE) 22,404 13.1 -67.1°
Sets 00:43:48 0° 25° (NNE) 19,920 13.1 -64.7°
